Regional Weather Roundup
Issued by NWS

Home | Current Version | Previous Version | Graphics & Text | Print | Product List | Glossary Off
Versions: 1 2 3 4 5 6 7 8 9 10 11 12 13 14 15 16 17 18 19 20 21 22 23 24 25 26 27 28 29 30 31 32 33 34 35 36 37 38 39 40 41 42 43 44 45 46 47 48 49 50

000
ASUS43 KDTX 272310
RWRMI
MICHIGAN HOURLY REGIONAL WEATHER ROUNDUP
NATIONAL WEATHER SERVICE DETROIT/PONTIAC MI
700 PM EDT WED JUL 27 2016

NOTE: "FAIR" INDICATES FEW OR NO CLOUDS BELOW 12,000 FEET WITH NO
SIGNIFICANT WEATHER AND/OR OBSTRUCTION TO VISIBILITY.

MIZ047>049-052>055-059>063-066>070-074>076-081>083-280000-
SOUTHEAST LOWER MICHIGAN

CITY           SKY/WX    TMP DP  RH WIND       PRES   REMARKS
ADRIAN         SUNNY     86  62  44 W5        29.94F
ALMA           CLOUDY    72  70  92 NW3       29.96F
ANN ARBOR      MOSUNNY   88  62  41 W9        29.92F
BAD AXE        LGT RAIN  68  65  89 N10G16    29.98F
CARO           CLOUDY    71  67  89 CALM      29.95S
DETROIT CITY   MOSUNNY   87  64  46 S13       29.90F
DETROIT        PTSUNNY   89  62  40 SW12      29.92F
FLINT          MOSUNNY   81  64  56 N7        29.95F
GROSSE ILE     SUNNY     83  70  65 S10       29.91F
HILLSDALE      SUNNY     84  62  47 NW6       29.96F
HOWELL         CLOUDY    78  62  57 N6        29.95S

CITY           SKY/WX    TMP DP  RH WIND       PRES   REMARKS
JACKSON        MOSUNNY   85  63  47 NW5       29.95F
LAMBERTVILLE   SUNNY     87  63  43 W3        29.94F
LANSING        PTSUNNY   77  62  59 N10       29.97F
LAPEER         PTSUNNY   78  63  61 N7        29.97R
MASON          CLOUDY    78  62  57 N8        29.96S
MONROE         SUNNY     86  65  49 SW7       29.92F
MT. CLEMENS    PTSUNNY   85  68  55 E5        29.90F
PONTIAC        PTSUNNY   83  65  54 N18G25    29.93S
PORT HOPE        N/A     72  69  90 W7        29.98R
PORT HURON     SUNNY     86  66  51 CALM      29.92S
TRI CITIES     MOSUNNY   71  68  90 NW6       29.95F
MIDLAND        LGT RAIN  71  69  93 CALM      29.94F
TROY           MOSUNNY   90  58  33 NW8       29.93F
SAGINAW HB     CLOUDY    72  66  83 SW3       29.94F
$$
MIZ043>046-050>051-056>058-064>065-071>073-077>080-280000-
SOUTHWEST LOWER MICHIGAN

CITY           SKY/WX    TMP DP  RH WIND       PRES   REMARKS
BATTLE CREEK   SUNNY     84  66  54 NW8       29.95F
BENTON HARBOR  SUNNY     84  62  47 CALM      29.95S
BIG RAPIDS     PTSUNNY   73  70  88 CALM      29.96F
COLDWATER      SUNNY     83  59  43 N3        29.95F
FREMONT        FAIR      79  71  76 SE7       29.96F
HOLLAND        MOSUNNY   81  67  62 W8        29.97S
GRAND RAPIDS   PTSUNNY   78  65  63 N10       29.97R
IONIA          PTSUNNY   73  62  69 N7        29.97F
KALAMAZOO      PTSUNNY   85  66  53 NW10      29.95S
LUDINGTON      CLOUDY    78  68  72 N7        29.94S
MARSHALL       MOSUNNY   86  62  44 SW3       29.94F
MOUNT PLEASANT PTSUNNY   72  69  90 SW3       29.96F
MUSKEGON       PTSUNNY   84  68  58 N5        29.95F
SOUTH HAVEN    SUNNY     82  62  50 N5        29.96S
$$
MIZ016>042-280000-
NORTHERN LOWER MICHIGAN

CITY           SKY/WX    TMP DP  RH WIND       PRES   REMARKS
ALPENA         PTSUNNY   75  65  70 SE6       29.96R
BEAVER ISLAND  CLOUDY    73  65  77 CALM      29.97R
BELLAIRE       CLOUDY    78  66  68 CALM      29.95S
CADILLAC       PTSUNNY   77  64  64 SW3       29.98S
CHARLEVOIX     CLOUDY    75  67  74 W6        29.99R
FRANKFORT      PTSUNNY   75  64  67 NW3       29.97R
GAYLORD        CLOUDY    77  63  61 NW5       29.98R
GRAYLING       CLOUDY    82  64  53 NW7       29.97S
HARBOR SPRINGS CLOUDY    73  67  83 SW5       29.95R
HOUGHTON LAKE  CLOUDY    77  65  66 SW5       29.98S
MANISTEE       CLOUDY    77  64  64 N12       29.95S
OSCODA         CLOUDY    70  67  90 CALM      29.94F
PELLSTON       CLOUDY    76  66  71 N9        29.96R
ROGERS CITY    CLOUDY    74  63  67 CALM      29.97R
TRAVERSE CITY  CLOUDY    79  64  60 N6        29.94R
$$
MIZ007>008-015-280000-
EASTERN UPPER MICHIGAN

CITY           SKY/WX    TMP DP  RH WIND       PRES   REMARKS
KINROSS        CLOUDY    71  58  63 N12       29.97R
MACKINAC ISLAN CLOUDY    71  60  67 N6        29.96S
NEWBERRY       CLOUDY    70  59  68 N3        29.98R
S. S. MARIE    CLOUDY    71  59  65 W7        29.96R
MUNISING         N/A     66  62  87 N10       30.01R
$$
MIZ004>006-011>014-085-280000-
CENTRAL UPPER MICHIGAN

CITY           SKY/WX    TMP DP  RH WIND       PRES   REMARKS
MANISTIQUE     CLOUDY    73  70  91 N5        29.96R
ESCANABA       CLOUDY    73  63  68 N6        29.97R
MENOMINEE      CLOUDY   N/A N/A N/A CALM      29.98R
SAWYER-GWINN   PTSUNNY   63  57  82 N9        30.04R
$$
MIZ001>003-009>011-084-280000-
WESTERN UPPER MICHIGAN

CITY           SKY/WX    TMP DP  RH WIND       PRES   REMARKS
IRON MOUNTAIN  CLOUDY    72  64  76 N5        29.99S
HOUGHTON       LGT RAIN  64  59  83 S5        30.03F
COPPER HARBOR    N/A     66  56  70 N5        30.02S
IRONWOOD       CLOUDY    66  66 100 NE3       29.99F
$$

ABBREVIATIONS USED IN REMARKS
   TC - TEMPERATURE IN CELSIUS
  WCI - WIND CHILL INDEX
   HX - HEAT INDEX
  VSB - VISIBILITY




USA.gov is the U.S. government's official web portal to all federal, state and local government web resources and services.